TimeCST,TemperatureF,Dew PointF,Humidity,Sea Level PressureIn,VisibilityMPH,Wind Direction,Wind SpeedMPH,Gust SpeedMPH,PrecipitationIn,Events,Conditions,WindDirDegrees,DateUTC
12:56 AM,1.9,-2.0,83,30.43,-9999.0,Calm,Calm,-,N/A,,Unknown,0,2014-03-06 06:56:00
1:56 AM,3.0,-0.9,84,30.42,-9999.0,NW,3.5,-,N/A,,Unknown,320,2014-03-06 07:56:00
2:56 AM,16.0,3.9,59,30.37,-9999.0,SSW,20.7,-,N/A,,Unknown,210,2014-03-06 08:56:00
3:56 AM,15.1,1.9,56,30.35,-9999.0,SSW,21.9,-,N/A,,Unknown,210,2014-03-06 09:56:00
4:56 AM,15.1,3.0,59,30.33,-9999.0,SSW,21.9,-,N/A,,Unknown,210,2014-03-06 10:56:00
5:56 AM,15.1,3.9,61,30.31,-9999.0,SSW,21.9,-,N/A,,Unknown,210,2014-03-06 11:56:00
6:56 AM,15.1,5.0,64,30.29,-9999.0,SSW,18.4,-,N/A,,Unknown,210,2014-03-06 12:56:00
7:56 AM,15.1,6.1,68,30.27,-9999.0,SSW,18.4,-,N/A,,Unknown,210,2014-03-06 13:56:00
8:56 AM,15.1,6.1,68,30.25,-9999.0,SSW,16.1,-,N/A,,Unknown,210,2014-03-06 14:56:00
9:56 AM,16.0,7.0,68,30.22,-9999.0,SSW,16.1,-,N/A,,Unknown,210,2014-03-06 15:56:00
10:56 AM,17.1,9.0,71,30.17,-9999.0,SSW,12.7,-,N/A,,Unknown,210,2014-03-06 16:56:00
11:56 AM,18.0,9.0,68,30.14,-9999.0,SSW,11.5,-,N/A,,Unknown,210,2014-03-06 17:56:00
12:56 PM,19.9,12.0,71,30.10,-9999.0,SW,8.1,-,N/A,,Unknown,230,2014-03-06 18:56:00
1:56 PM,21.9,12.9,68,30.04,-9999.0,WSW,4.6,-,N/A,,Unknown,240,2014-03-06 19:56:00
2:56 PM,25.0,15.1,66,29.98,-9999.0,Variable,3.5,-,N/A,,Unknown,0,2014-03-06 20:56:00
3:56 PM,27.0,17.1,66,29.95,-9999.0,Calm,Calm,-,N/A,,Unknown,0,2014-03-06 21:56:00
4:56 PM,28.0,19.0,69,29.93,-9999.0,West,3.5,-,N/A,,Unknown,260,2014-03-06 22:56:00
5:56 PM,25.0,18.0,75,29.92,-9999.0,Calm,Calm,-,N/A,,Unknown,0,2014-03-06 23:56:00
6:56 PM,26.1,18.0,71,29.93,-9999.0,Calm,Calm,-,N/A,,Unknown,0,2014-03-07 00:56:00
7:56 PM,25.0,18.0,75,29.91,-9999.0,Calm,Calm,-,N/A,,Unknown,0,2014-03-07 01:56:00
8:56 PM,25.0,18.0,75,29.91,-9999.0,Calm,Calm,-,N/A,,Unknown,0,2014-03-07 02:56:00
9:56 PM,25.0,18.0,75,29.89,-9999.0,Calm,Calm,-,N/A,,Unknown,0,2014-03-07 03:56:00
10:56 PM,28.9,21.9,75,29.84,-9999.0,SW,18.4,-,N/A,,Unknown,220,2014-03-07 04:56:00
11:56 PM,28.9,21.9,75,29.82,-9999.0,SW,19.6,-,N/A,,Unknown,220,2014-03-07 05:56:00